Location: *
(55.8970°S, 141.1792°W)
Time: 21:35:00
(UTC+00:00)

Daily predictions for brighter satellites

Satellite Brightness Start Highest point End
(mag) Time Altitude Azimuth Time Altitude Azimuth Time Altitude Azimuth
SL-16 R/B 4.4 12:16:42 10° SSE 12:19:18 24° SE 12:19:18 24° SE
USA 234 4.5 12:46:29 10° ESE 12:51:39 34° ENE 12:51:39 34° ENE
Cosmos 1697 Rocket 4.2 13:06:33 34° ESE 13:06:33 34° ESE 13:10:06 10° SE
Cosmos 1844 Rocket 4.2 13:15:27 31° SE 13:15:27 31° SE 13:20:07 10° E
Cosmos 2263 Rocket 3.8 13:41:08 25° NNE 13:41:08 25° NNE 13:43:22 10° NNE
ARGOS 3.6 13:45:28 10° NNE 13:50:09 61° ENE 13:50:09 61° ENE
Cosmos 1943 Rocket 4.2 13:51:23 18° S 13:51:24 18° S 13:55:15 10° SE
Cosmos 2278 Rocket 4.1 13:52:31 19° S 13:53:28 20° SSE 13:57:36 10° ESE
Cosmos 1980 Rocket 2.9 13:53:16 44° NNE 13:54:28 52° ENE 14:00:03 10° SE
Cosmos 2315 Rocket 4.4 13:51:40 10° S 13:57:55 61° ESE 14:04:06 10° NNE
Cosmos 494 Rocket 4.2 14:04:40 71° E 14:04:40 71° E 14:09:44 10° SSE
Timation 2 Rocket 3.8 14:05:21 76° S 14:05:50 83° SE 14:12:03 10° NE
SL-16 R/B 3.4 14:00:24 10° SSE 14:04:23 36° SSW 14:04:23 36° SSW
CZ-2C R/B 3.1 14:01:54 10° SSE 14:05:54 50° SSE 14:05:54 50° SSE
Geosat 4.4 14:03:55 10° SSE 14:07:58 57° SSE 14:07:58 57° SSE
Meteor 2-17 Rocket 4.3 14:08:35 75° NNW 14:09:09 86° WSW 14:15:23 10° SSE
Meteor 1-27 4.2 14:13:05 43° N 14:15:02 81° ENE 14:20:43 10° SSE
Cosmos 2369 Rocket 4.0 14:16:29 18° S 14:16:29 18° S 14:20:04 10° SSE
Cosmos 1655 Rocket 4.5 14:11:01 10° N 14:17:10 61° E 14:23:25 10° SSE
CZ-4B R/B 3.4 14:15:03 10° NNE 14:19:52 79° N 14:19:52 79° N
ISS -1.4 14:29:05 21° NE 14:29:05 21° NE 14:30:33 10° NE
SL-08 RB Rocket 4.2 14:23:12 10° NNE 14:26:31 49° NNE 14:26:31 49° NNE
Cosmos 1818 4.5 14:27:54 18° N 14:31:38 46° NE 14:36:48 10° SE
CORIOLIS 4.1 14:27:21 10° NNE 14:32:47 85° ESE 14:35:55 27° SSW
S3M 3.9 14:33:03 53° SW 14:34:03 60° W 14:40:13 10° N
Cosmos 1048 Rocket 3.9 14:33:19 66° NW 14:34:04 81° WSW 14:39:34 10° SSE
SeaSat 1 3.0 14:30:33 10° NNE 14:34:17 44° NNW 14:34:17 44° NNW
Cosmos 1242 Rocket 4.2 14:37:27 27° NNE 14:37:27 27° NNE 14:39:08 10° NNE
USA 234 3.4 14:29:30 10° ESE 14:36:09 73° NNE 14:38:59 37° NW
Cosmos 44 3.7 14:37:48 43° N 14:37:48 43° N 14:40:55 10° NNE
COSMOS 2455 3.8 14:36:27 31° SSW 14:36:54 31° SSW 14:42:16 10° SE
Cosmos 2227 4.2 14:37:55 60° W 14:38:29 64° WNW 14:44:12 10° NNE
Cosmos 1461 3.1 14:39:07 62° ENE 14:39:07 62° ENE 14:42:26 10° NE
Cosmos 1346 Rocket 3.6 14:40:27 43° SSE 14:40:27 43° SSE 14:43:15 10° SSE
Cosmos 1302 Rocket 4.0 14:41:24 61° WNW 14:41:24 61° WNW 14:46:39 10° N
Exosat Rocket 3.5 14:43:01 62° W 14:43:21 64° WNW 14:48:48 10° NNE
Helios 1A 2.9 14:39:35 10° SSE 14:43:52 87° ENE 14:44:44 56° NNW
SL-16 R/B 3.7 14:40:44 10° N 14:45:56 38° ENE 14:51:11 10° SE
Cosmos 1844 3.9 14:43:54 33° SSW 14:46:42 74° SE 14:52:31 10° NE
Meteor PRIRODA 4.3 14:43:49 10° NE 14:47:23 52° ESE 14:48:22 39° SSE
Cosmos 1697 Rocket 2.8 14:48:18 50° WSW 14:48:40 51° SW 14:54:15 10° SSE
Cosmos 839 Rocket 4.3 14:46:15 38° WNW 14:49:21 68° SW 14:55:57 10° SE
Cosmos 2322 Rocket 4.2 14:44:48 10° NNE 14:49:36 29° ENE 14:54:26 10° SE
Cosmos 1500 3.2 14:52:27 66° SSE 14:52:52 75° ESE 14:56:36 10° NNE
Cosmos 2058 Rocket 3.6 14:55:33 45° SSW 14:55:33 45° SSW 14:59:04 10° S
Cosmos 2266 Rocket 3.8 14:48:31 10° NNW 14:54:36 72° WSW 15:00:46 10° S
Cosmos 1844 Rocket 2.6 14:57:08 34° SW 14:59:42 86° WNW 15:05:20 10° NNE
SL-08 ROCKET BODY 4.4 14:55:37 10° N 15:01:35 88° E 15:07:44 10° SSE
Okean O Rocket 4.1 14:59:03 10° E 15:02:08 19° SE 15:05:14 10° S
CZ-4B R/B 3.6 14:58:39 10° NNE 15:02:55 60° ESE 15:07:04 12° S
SMAP 3.2 15:00:23 10° N 15:04:59 53° W 15:05:50 46° WSW
DMSP B5D2-2 4.3 15:06:55 10° SSE 15:12:14 73° ENE 15:17:30 10° N
Meteor 2-12 Rocket 4.4 15:08:34 10° N 15:14:41 86° E 15:20:54 10° SSE
COSMO-SKYMED 1 4.0 15:12:04 10° SSE 15:16:18 41° E 15:20:29 10° N
DNEPR-1 R/B 4.2 15:18:16 33° NW 15:18:16 33° NW 15:21:57 10° N
Cosmos 2369 3.8 15:16:25 25° WNW 15:19:39 57° SW 15:25:21 10° SSE
NOSS 3-3 (A) 4.1 15:15:53 26° SW 15:19:59 79° SE 15:25:55 10° ENE
NOSS 3-3 (C) 4.1 15:15:57 26° SW 15:20:04 79° SE 15:26:00 10° ENE
Cosmos 2263 Rocket 3.8 15:22:53 16° NW 15:22:53 16° NW 15:24:48 10° NW
Cosmos-2242 3.0 15:17:55 10° NNW 15:22:20 85° W 15:26:51 10° SSE
Cosmos 1812 Rocket 3.5 15:19:03 10° NNW 15:23:27 87° WSW 15:27:55 10° SSE
ADEOS 3.5 15:19:53 10° N 15:25:09 72° WNW 15:30:30 10° SSW
Cosmos 2278 3.6 15:23:30 10° NW 15:29:15 82° SW 15:35:04 10° SE
CZ-4B R/B 4.3 15:24:54 10° NE 15:30:17 46° ESE 15:35:39 10° S
ARGOS 4.1 15:27:06 10° NNW 15:31:38 27° W 15:31:38 27° W
Cosmos 1992 Rocket 4.3 15:32:57 25° SW 15:35:40 47° WNW 15:40:40 10° N
Cosmos 1943 Rocket 3.8 15:32:53 12° SSW 15:37:10 26° SSE 15:41:57 10° E
Cosmos 1812 3.4 15:33:55 10° N 15:37:38 56° E 15:41:25 10° SSE
Cosmos 1980 Rocket 2.5 15:35:06 21° WNW 15:38:38 45° SW 15:44:11 10° SSE
Cosmos 2278 Rocket 3.3 15:34:21 13° SSW 15:39:09 39° SE 15:44:31 10° ENE
Landsat 4 3.5 15:36:58 10° NNE 15:40:41 76° WNW 15:43:38 16° SSW
Cosmos 1544 3.3 15:40:21 36° WSW 15:40:59 40° W 15:44:13 10° NNW
SL-08 R/B 3.3 15:39:29 10° SSE 15:44:13 86° ENE 15:48:53 10° NNW
Cosmos 1666 2.9 15:42:28 25° SW 15:44:17 45° W 15:47:50 10° NNW
CZ-4 R/B 2.6 15:40:37 10° NE 15:44:27 41° ESE 15:48:24 10° S
CZ-2C R/B 3.8 15:42:56 10° S 15:46:58 22° SW 15:47:22 21° WSW
SL-16 R/B 4.0 15:44:56 10° S 15:48:44 17° SW 15:49:28 17° SW
CENTAUR R/B 4.3 15:42:23 10° N 15:49:44 41° NE 15:55:57 10° ESE
Molniya-1 4.1 15:45:57 10° WNW 15:51:07 69° SSW 15:53:35 10° SE
PSLV R/B 4.3 15:48:36 10° NNE 15:52:24 58° ESE 15:56:11 10° S
Nadezhda 1 Rocket 4.0 15:46:48 10° SSW 15:53:07 81° W 15:59:29 10° N
Cosmos 44 Rocket 4.1 15:53:43 17° SW 15:57:03 41° SSE 16:01:31 10° E
Cosmos 614 Rocket 3.9 15:57:00 10° NNW 16:02:11 87° WSW 16:07:23 10° SSE
Meteor 2-2 Rocket 4.3 15:56:15 10° NNW 16:02:11 77° WSW 16:08:18 10° SSE
Cosmos 2369 Rocket 3.9 15:58:16 10° SSW 16:02:22 20° SSE 16:06:31 10° ESE
Cosmos 1408 Rocket 4.0 15:58:27 10° S 16:02:59 66° ESE 16:07:24 10° NNE
YAOGAN 1 2.5 15:58:51 10° NNE 16:03:14 84° WNW 16:07:40 10° SSW
ISS -1.5 16:01:58 12° WNW 16:03:29 15° NNW 16:05:34 10° N
SKYMED 2 3.5 15:59:59 10° SSE 16:04:28 80° WSW 16:08:52 10° NNW
Cosmos 2237 4.2 16:00:10 10° NW 16:05:56 84° SW 16:11:47 10° SE
Meteor 1-5 Rocket 4.3 16:04:35 10° SSW 16:10:25 84° WNW 16:16:22 10° N
Okean 3 Rocket 3.6 16:06:04 10° SSW 16:10:34 68° W 16:15:02 10° N
IKONOS-2 4.4 16:09:14 10° SSE 16:13:32 76° WSW 16:17:47 10° NNW
SeaSat 1 4.4 16:12:30 10° WNW 16:13:56 11° W 16:14:02 11° W
Cosmos 1766 Rocket 3.9 16:10:35 10° SSW 16:14:57 46° W 16:19:14 10° NNW
Cosmos 1818 3.7 16:09:49 10° WNW 16:15:10 58° SSW 16:20:33 10° SE
Cosmos 1346 Rocket 4.4 16:15:47 16° WSW 16:15:54 16° SW 16:18:29 10° SSW
Cosmos 1461 4.3 16:15:08 15° W 16:16:45 19° WNW 16:19:34 10° NNW
Cosmos 1842 Rocket 4.2 16:12:25 10° N 16:16:46 61° E 16:21:09 10° SSE
Cosmos 1782 2.7 16:14:05 10° NNW 16:18:04 77° WSW 16:22:07 10° S
CZ-4B DEB 4.4 16:12:44 10° N 16:18:16 58° WNW 16:23:51 10° SSW
Helios 1A 4.4 16:15:49 10° S 16:18:41 18° SW 16:21:08 12° W
CZ-4C R/B 4.1 16:15:00 10° SSE 16:19:12 63° ENE 16:23:30 10° N
USA 234 3.3 16:12:40 10° E 16:19:18 82° S 16:25:57 10° W
COSMOS 2455 4.0 16:19:36 12° SW 16:24:29 31° SSE 16:29:48 10° ESE
Resurs 1-3 4.3 16:23:50 10° NNE 16:28:11 58° ESE 16:32:35 10° S
SL-16 R/B 2.3 16:24:15 10° NW 16:29:53 58° SW 16:35:34 10° SSE
IGS 5A 3.4 16:26:24 10° N 16:30:35 74° WNW 16:34:49 10° SSW
Cosmos 2181 Rocket 4.3 16:24:05 10° S 16:30:38 76° ESE 16:37:09 10° NNE
Cosmos 2322 Rocket 2.2 16:27:35 10° NW 16:33:14 71° SW 16:38:57 10° SSE
Resurs 01 Rocket 3.1 16:29:24 10° NE 16:33:27 35° ESE 16:37:33 10° S
Cosmos 1697 Rocket 4.0 16:30:03 12° WSW 16:33:59 22° SSW 16:38:22 10° SSE
Cosmos 1437 Rocket 2.7 16:32:31 10° SSW 16:36:25 90° WNW 16:40:12 10° NNE
Terra 4.3 16:34:59 10° ESE 16:37:24 14° SE 16:39:49 10° SSE
Okean O Rocket 1.6 16:33:28 10° NNE 16:37:55 87° WNW 16:42:23 10° SSW
CZ-4B R/B 4.3 16:34:34 10° NW 16:38:04 23° W 16:41:42 10° SW
Cosmos 1536 4.1 16:34:55 10° S 16:38:51 42° ESE 16:42:46 10° NE
DELTA 2 DEB (DPAF) 4.3 16:35:14 10° S 16:39:31 48° WSW 16:43:45 10° NW
Cosmos 2360 Rocket 2.2 16:34:43 10° NW 16:40:25 81° SW 16:46:13 10° SE
Cosmos 407 Rocket 4.3 16:37:46 10° N 16:42:49 56° ENE 16:47:58 10° SSE
Cosmos 1844 Rocket 4.0 16:38:50 10° SW 16:42:51 20° W 16:46:51 10° NNW
Cosmos 1515 4.3 16:42:31 10° N 16:46:12 58° E 16:49:55 10° SSE
Cosmos 2221 2.8 16:44:34 10° NW 16:48:49 47° WSW 16:53:04 10° S
USA 186 1.8 16:48:40 10° NNE 16:51:57 86° W 16:55:19 10° SSW
Cosmos 2333 Rocket 2.3 16:46:25 10° NNW 16:52:08 89° SW 16:57:56 10° SE
ASTEX 1 3.4 16:47:25 10° N 16:52:23 81° W 16:57:24 10° S
COSMO-SKYMED 1 3.3 16:48:24 10° S 16:52:25 34° WSW 16:56:23 10° NW
Cosmos 540 Rocket 3.7 16:50:08 10° SSW 16:55:21 76° ESE 17:00:31 10° NNE
Cosmos 1607 4.2 16:49:47 10° SW 16:56:03 67° SE 17:02:11 10° ENE
Cosmos 1269 Rocket 4.5 16:51:14 10° WNW 16:56:18 41° SW 17:01:25 10° SSE
Meteor 1-26 Rocket 4.3 16:50:45 10° NNW 16:56:27 67° WSW 17:02:24 10° SSE
Meteor 1-14 Rocket 4.3 16:52:20 10° SSW 16:57:52 60° W 17:03:23 10° N
Okean-O 3.1 16:54:09 10° NNE 16:58:36 67° ESE 17:03:06 10° SSW
Cosmos 1666 Rocket 4.4 16:56:01 10° S 17:00:22 51° ESE 17:04:42 10° NNE
COSMOS 2428 3.8 16:54:55 10° N 17:00:26 52° ENE 17:06:00 10° SE
SJ-6B 2.8 16:56:55 10° N 17:00:39 58° W 17:04:23 10° SSW
Cosmos 2333 4.3 16:55:11 10° NW 17:00:52 85° SW 17:06:40 10° SE
Meteor 1-11 Rocket 3.9 16:57:19 10° SSW 17:03:02 82° ESE 17:08:38 10° NNE
